[[{"header":{"parameterUnit":"m.s-1","parameterCategory":1,"la1":30.2991,"la2":30.254,"lo1":-89.0895,"lo2":-89.0444,"dx":0.0017,"dy":0.0017,"nx":28,"ny":28,"refTime":"2023-01-09T03:00:00:Z","depth":0,"parameterNumber":2,"parameterNumberName":"U-component_of_WINDS"},"data":[0,0,0,0,0,0,0,0,0,0,0,0,0,0,0,0,0,0,0,0,0,0,0,0,0,0,0,0,0,0,0,0,0,0,0,0,0,0,0,0,0,0,0,0,0,0,0,0,0,0,0,0,0,0,0,0,0,0,-0.3299,-0.3298,0,-0.3193,-0.3192,-0.319,-0.315,-0.315,-0.3151,-0.3151,-0.3037,-0.3034,-0.3031,0,0,0,0,0,0,0,0,0,0,0,0,0,-0.3462,-0.346,-0.3299,-0.3298,-0.3297,-0.3193,-0.3191,-0.319,-0.315,-0.315,-0.3151,-0.3151,-0.3038,-0.3035,-0.3031,0,0,0,0,0,0,0,0,0,0,0,0,0,-0.3377,-0.3459,-0.3299,-0.3264,-0.326,-0.3193,-0.3191,-0.319,-0.315,-0.315,-0.3151,-0.3151,-0.304,-0.3035,-0.303,-0.2989,0,0,-0.3015,-0.3013,0,0,0,0,0,0,0,0,-0.3382,-0.3371,-0.3271,-0.3266,-0.3262,-0.3185,-0.3207,-0.3122,-0.315,-0.3192,-0.3151,-0.3152,-0.3086,-0.3077,-0.3056,-0.2984,-0.2979,-0.3014,-0.3011,-0.3009,-0.3008,0,0,0,0,0,0,0,-0.3388,-0.3376,-0.3257,-0.3269,-0.3264,-0.3252,-0.324,-0.3191,-0.3137,-0.3188,-0.3185,-0.3173,-0.3083,-0.3061,-0.3053,-0.2977,-0.3014,-0.301,-0.3007,-0.3005,-0.2864,-0.2864,0,0,0,0,0,0,-0.3401,-0.3381,-0.326,-0.3254,-0.3325,-0.3249,-0.3236,-0.3209,-0.3138,-0.3127,-0.3173,-0.3172,-0.3069,-0.3059,-0.3049,-0.2995,-0.3009,-0.3004,-0.3002,-0.2865,-0.2864,-0.2863,0,0,0,0,0,0,-0.3404,-0.339,-0.3265,-0.3316,-0.33,-0.3245,-0.3216,-0.3207,-0.3184,-0.3126,-0.3116,-0.316,-0.3069,-0.3056,-0.3004,-0.2991,-0.3002,-0.2998,-0.2866,-0.2865,-0.2864,-0.2889,0,0,0,0,0,0,-0.3409,-0.3392,-0.3377,-0.3316,-0.3297,-0.3224,-0.3215,-0.3204,-0.3176,-0.3174,-0.3111,-0.3101,-0.3069,-0.3012,-0.2999,-0.2984,-0.2994,-0.2867,-0.2865,-0.2864,-0.2889,-0.2889,-0.2889,0,0,0,0,0,-0.3415,-0.3388,-0.3377,-0.3362,-0.3278,-0.3223,-0.3212,-0.3176,-0.3176,-0.3159,-0.3122,-0.3103,-0.2995,-0.3007,-0.2992,-0.2976,-0.2867,-0.2866,-0.2864,-0.2889,-0.2889,-0.2889,0,0,0,0,0,0,-0.3447,-0.3379,-0.3366,-0.3318,-0.3277,-0.3216,-0.3195,-0.3177,-0.3133,-0.3133,-0.3088,-0.3075,-0.3026,-0.2995,-0.3011,-0.2931,-0.2929,-0.2925,-0.2953,-0.2953,-0.2953,-0.2961,-0.299,0,0,0,0,0,-0.3449,-0.3411,-0.3353,-0.3317,-0.3297,-0.325,-0.3224,-0.3201,-0.3155,-0.3137,-0.3095,-0.3051,-0.3006,-0.2978,-0.2933,-0.2884,-0.2869,-0.2865,-0.2865,-0.2865,-0.2862,-0.2832,-0.2829,-0.2858,-0.2858,-0.2858,0,0,-0.3451,-0.341,-0.3389,-0.3322,-0.3287,-0.3248,-0.3235,-0.3194,-0.3164,-0.313,-0.3079,-0.3047,-0.2994,-0.2943,-0.2919,-0.2916,-0.285,-0.2863,-0.2864,-0.286,-0.283,-0.2827,-0.2825,-0.2857,-0.2857,-0.2857,0,0,-0.3436,-0.3401,-0.3367,-0.3332,-0.328,-0.3248,-0.324,-0.3182,-0.316,-0.3108,-0.3081,-0.3044,-0.2968,-0.2931,-0.2903,-0.2873,-0.2853,-0.2859,-0.2858,-0.283,-0.2827,-0.2825,-0.2813,-0.281,-0.2856,-0.2856,-0.2856,0,-0.3446,-0.3388,-0.3351,-0.3312,-0.3283,-0.3251,-0.3215,-0.3182,-0.3117,-0.3097,-0.3096,-0.3,-0.2962,-0.2901,-0.2894,-0.2872,-0.286,-0.2866,-0.2831,-0.2828,-0.2826,-0.2814,-0.281,-0.2857,-0.2857,-0.2857,-0.2856,0,-0.3401,-0.3361,-0.3339,-0.3279,-0.3247,-0.321,-0.3166,-0.3138,-0.3116,-0.3084,-0.3031,-0.2984,-0.293,-0.2914,-0.2892,-0.2849,-0.2849,-0.284,-0.2837,-0.2825,-0.2813,-0.2808,-0.2858,-0.2858,-0.2858,-0.2857,0,0,-0.3404,-0.3324,-0.3316,-0.3288,-0.3228,-0.3195,-0.3155,-0.3103,-0.3079,-0.3035,-0.2999,-0.2936,-0.2927,-0.2894,-0.2867,-0.2842,-0.282,-0.2835,-0.2833,-0.2834,-0.2769,-0.2777,-0.2772,-0.2807,-0.2806,-0.2805,-0.2773,0,-0.3381,-0.331,-0.3276,-0.3219,-0.318,-0.3149,-0.3114,-0.3072,-0.3041,-0.3002,-0.2966,-0.2922,-0.2913,-0.2893,-0.2867,-0.2829,-0.2806,-0.283,-0.2772,-0.277,-0.2786,-0.2766,-0.2774,-0.2747,-0.2769,-0.2768,-0.2767,0,-0.3344,-0.3302,-0.3242,-0.3185,-0.3167,-0.3137,-0.3086,-0.305,-0.3,-0.2979,-0.2943,-0.2917,-0.2871,-0.2872,-0.2808,-0.2825,-0.2798,-0.2775,-0.2773,-0.2766,-0.2768,-0.2758,-0.2737,-0.2733,-0.276,-0.276,-0.2761,0,-0.3352,-0.3279,-0.3234,-0.3211,-0.3143,-0.3122,-0.3093,-0.3044,-0.3015,-0.2969,-0.2949,-0.2899,-0.2871,-0.2831,-0.2791,-0.2796,-0.2731,-0.2728,-0.271,-0.2711,-0.2698,-0.27,-0.2672,-0.2682,-0.2682,-0.2682,-0.2682,0,-0.3329,-0.3294,-0.3236,-0.3208,-0.3167,-0.3127,-0.3086,-0.3054,-0.3011,-0.2974,-0.2943,-0.2909,-0.2859,-0.2818,-0.2787,-0.2738,-0.2725,-0.2706,-0.2697,-0.2708,-0.2711,-0.269,-0.2691,-0.2681,-0.2681,-0.2681,-0.2682,0,-0.3331,-0.3291,-0.324,-0.318,-0.3164,-0.3136,-0.3084,-0.3054,-0.3021,-0.2976,-0.2963,-0.291,-0.286,-0.2817,-0.2751,-0.2729,-0.2679,-0.2669,-0.2696,-0.2692,-0.2676,-0.2678,-0.2634,-0.2626,-0.2642,-0.2642,-0.2642,0,-0.3319,-0.3291,-0.3229,-0.3203,-0.3175,-0.3133,-0.3103,-0.3062,-0.3031,-0.2973,-0.295,-0.2898,-0.2855,-0.2777,-0.2731,-0.268,-0.2668,-0.2657,-0.266,-0.2672,-0.2667,-0.267,-0.2666,-0.2657,-0.2657,-0.2657,-0.2657,0,-0.3303,-0.3284,-0.3243,-0.3195,-0.316,-0.312,-0.3078,-0.3058,-0.3008,-0.2975,-0.2925,-0.2892,-0.2824,-0.2773,-0.2716,-0.2684,-0.2661,-0.2656,-0.2649,-0.266,-0.2676,-0.2666,-0.2696,-0.2657,-0.2657,-0.2657,-0.2657,-0.2657,-0.3297,-0.327,-0.3222,-0.3177,-0.3141,-0.3103,-0.3072,-0.3035,-0.2993,-0.2937,-0.2914,-0.2862,-0.2811,-0.2734,-0.2701,-0.2659,-0.2655,-0.2645,-0.2642,-0.264,-0.2642,-0.2684,-0.2648,-0.2648,-0.2648,-0.2648,-0.2648,0,-0.3278,-0.3246,-0.3204,-0.3148,-0.3112,-0.3095,-0.3048,-0.3018,-0.2974,-0.2929,-0.2887,-0.2829,-0.2778,-0.2729,-0.2675,-0.2651,-0.2639,-0.2638,-0.2639,-0.2631,-0.2649,-0.266,-0.2648,-0.2648,-0.2648,-0.2648,-0.2648,-0.2648,-0.3264,-0.3218,-0.3194,-0.3129,-0.3096,-0.3046,-0.302,-0.2984,-0.2948,-0.2885,-0.2843,-0.2812,-0.2765,-0.2707,-0.2659,-0.2646,-0.2627,-0.2629,-0.2613,-0.263,-0.263,-0.2631,-0.2641,-0.2626,-0.2625,-0.2599,-0.2598,-0.2598]},{"header":{"parameterUnit":"m.s-1","parameterCategory":1,"la1":30.2991,"la2":30.254,"lo1":-89.0895,"lo2":-89.0444,"dx":0.0017,"dy":0.0017,"nx":28,"ny":28,"refTime":"2023-01-09T03:00:00:Z","depth":0,"parameterNumber":3,"parameterNumberName":"V-component_of_WINDS"},"data":[0,0,0,0,0,0,0,0,0,0,0,0,0,0,0,0,0,0,0,0,0,0,0,0,0,0,0,0,0,0,0,0,0,0,0,0,0,0,0,0,0,0,0,0,0,0,0,0,0,0,0,0,0,0,0,0,0,0,1.7663,1.7663,0,1.7676,1.7676,1.7676,1.7658,1.7657,1.7656,1.7656,1.7668,1.7669,1.767,0,0,0,0,0,0,0,0,0,0,0,0,0,1.762,1.7621,1.7663,1.7663,1.7663,1.7676,1.7676,1.7676,1.7658,1.7657,1.7656,1.7656,1.7668,1.7669,1.767,0,0,0,0,0,0,0,0,0,0,0,0,0,1.7636,1.7621,1.7663,1.7655,1.7655,1.7676,1.7676,1.7676,1.7658,1.7657,1.7656,1.7655,1.7668,1.7669,1.767,1.7699,0,0,1.7675,1.7675,0,0,0,0,0,0,0,0,1.7635,1.7638,1.7656,1.7656,1.7655,1.7664,1.7665,1.7684,1.7658,1.7657,1.7656,1.7655,1.7668,1.7669,1.7674,1.7699,1.77,1.7675,1.7676,1.7676,1.7677,0,0,0,0,0,0,0,1.7634,1.7637,1.7668,1.7657,1.7656,1.7651,1.7652,1.7669,1.7667,1.7657,1.7656,1.7657,1.7667,1.7672,1.7674,1.77,1.7675,1.7676,1.7677,1.7677,1.7749,1.775,0,0,0,0,0,0,1.7634,1.7636,1.7667,1.7668,1.7643,1.7653,1.7654,1.7662,1.7667,1.7667,1.7658,1.7657,1.767,1.7672,1.7674,1.7707,1.7676,1.7677,1.7678,1.7748,1.7749,1.775,0,0,0,0,0,0,1.7633,1.7637,1.7667,1.7652,1.7655,1.7654,1.7664,1.7663,1.7668,1.7668,1.7668,1.7664,1.767,1.7672,1.7693,1.7707,1.7678,1.7679,1.7746,1.7748,1.7749,1.7774,0,0,0,0,0,0,1.7632,1.7637,1.7648,1.7652,1.7656,1.7686,1.7665,1.7664,1.7671,1.7669,1.7673,1.7673,1.7669,1.7691,1.7694,1.7709,1.768,1.7745,1.7747,1.7749,1.7771,1.7776,1.7779,0,0,0,0,0,1.7631,1.7654,1.7649,1.7653,1.767,1.7687,1.7689,1.7684,1.7672,1.7683,1.7683,1.7673,1.7705,1.7693,1.7696,1.7712,1.7744,1.7747,1.7749,1.777,1.7775,1.7779,0,0,0,0,0,0,1.7651,1.7655,1.7649,1.7674,1.768,1.7683,1.7697,1.7689,1.7699,1.7696,1.7689,1.7691,1.7712,1.7714,1.77,1.7739,1.7723,1.7726,1.7737,1.7742,1.7746,1.7745,1.7682,0,0,0,0,0,1.7659,1.7672,1.7674,1.7696,1.77,1.7698,1.7705,1.7701,1.7706,1.7709,1.771,1.7716,1.7727,1.7735,1.7745,1.7772,1.7772,1.7784,1.7788,1.7791,1.7794,1.7808,1.7813,1.7758,1.7758,1.7758,0,0,1.7674,1.7678,1.7687,1.7701,1.7705,1.7718,1.77,1.7715,1.7725,1.7711,1.773,1.7732,1.7738,1.7761,1.7771,1.7763,1.7809,1.7794,1.7797,1.7798,1.7811,1.7816,1.782,1.7759,1.7759,1.7759,0,0,1.7709,1.7714,1.7732,1.7737,1.7744,1.7742,1.7747,1.7751,1.7752,1.7771,1.7761,1.7772,1.7792,1.7796,1.7801,1.7838,1.7829,1.7842,1.7862,1.7876,1.788,1.7884,1.7896,1.7901,1.7844,1.7845,1.7845,0,1.7727,1.7748,1.7743,1.7759,1.7765,1.7753,1.7772,1.7777,1.7786,1.7791,1.7781,1.7806,1.7809,1.7833,1.7842,1.7847,1.7851,1.7841,1.788,1.7884,1.7887,1.7899,1.7904,1.7846,1.7846,1.7846,1.7846,0,1.777,1.7784,1.7799,1.7809,1.7816,1.7834,1.7831,1.7839,1.7834,1.7834,1.7854,1.7857,1.7868,1.7873,1.7868,1.7897,1.7891,1.7881,1.7864,1.7894,1.7905,1.791,1.7848,1.7848,1.7847,1.7847,0,0,1.7818,1.7825,1.783,1.7834,1.7841,1.7852,1.7868,1.7879,1.7886,1.7894,1.7907,1.7924,1.7915,1.792,1.7916,1.7928,1.7956,1.7916,1.7916,1.7923,1.7986,1.7994,1.7999,1.795,1.7951,1.7952,1.7986,0,1.7852,1.7881,1.7877,1.7905,1.7918,1.7907,1.7921,1.7926,1.7926,1.7937,1.7937,1.7949,1.7936,1.7939,1.795,1.795,1.7968,1.7948,1.7962,1.7962,1.796,1.8005,1.8013,1.8044,1.799,1.7991,1.7991,0,1.7897,1.7906,1.7935,1.7939,1.7944,1.7958,1.7967,1.7977,1.7983,1.7982,1.7989,1.7982,1.7998,1.7981,1.8003,1.7989,1.7994,1.7995,1.7996,1.7997,1.7978,1.8006,1.8055,1.8059,1.7998,1.7998,1.7997,0,1.7928,1.7947,1.7967,1.7971,1.7977,1.7986,1.7989,1.7994,1.8001,1.8009,1.8013,1.8023,1.8028,1.8036,1.8032,1.802,1.8054,1.8037,1.8053,1.8053,1.806,1.806,1.811,1.8065,1.8065,1.8065,1.8065,0,1.7967,1.7985,1.7981,1.7994,1.8013,1.8008,1.8028,1.8029,1.8034,1.8045,1.8036,1.8048,1.8042,1.8053,1.805,1.8068,1.807,1.807,1.8068,1.807,1.807,1.8073,1.8071,1.8066,1.8066,1.8066,1.8065,0,1.8005,1.8003,1.8024,1.8028,1.8029,1.8044,1.8047,1.8058,1.8057,1.8072,1.8076,1.8074,1.8086,1.8083,1.8097,1.8094,1.8117,1.8113,1.8115,1.8114,1.813,1.8128,1.8183,1.819,1.8141,1.8142,1.8142,0,1.8029,1.8043,1.8049,1.8056,1.806,1.8072,1.8079,1.8074,1.8082,1.8089,1.8099,1.8111,1.8119,1.8139,1.8139,1.8149,1.8145,1.8164,1.8146,1.8148,1.8145,1.8144,1.8145,1.8167,1.8167,1.8168,1.8168,0,1.8073,1.8071,1.8082,1.8092,1.8101,1.8109,1.8116,1.8122,1.8118,1.8127,1.814,1.8146,1.816,1.8171,1.818,1.8182,1.8174,1.8174,1.8178,1.8179,1.818,1.8179,1.8124,1.8172,1.8172,1.8172,1.8171,1.8171,1.8104,1.8116,1.8122,1.8134,1.8138,1.8145,1.8156,1.8156,1.8167,1.8178,1.8174,1.8189,1.8193,1.8205,1.8208,1.8219,1.8212,1.8218,1.8219,1.8221,1.8222,1.8179,1.8221,1.8221,1.822,1.822,1.822,0,1.8147,1.815,1.8161,1.8171,1.8181,1.8173,1.818,1.8188,1.8201,1.8207,1.8216,1.823,1.8241,1.8242,1.8252,1.826,1.8256,1.8262,1.8261,1.8262,1.8229,1.8224,1.8265,1.8265,1.8265,1.8265,1.8265,1.8265,1.817,1.8189,1.8188,1.8209,1.8212,1.8226,1.8231,1.8237,1.8241,1.8258,1.8267,1.8267,1.8271,1.8281,1.8291,1.8291,1.8294,1.8302,1.83,1.8269,1.8264,1.826,1.8255,1.8303,1.8303,1.8333,1.8333,1.8333]}]]